sat.trackr.live / text

‹ back to catalog

SUPERVIEW NEO-1 01

NORAD 52320 · 2022-043A

PAYLOAD ACTIVE UNKNOWN

§ Identity

Operator
Country
PRC
Launch date
2022-04-29
Launch site
JSC
Launch vehicle
Mass (kg)
RCS (m²)

External: N2YO · Heavens-Above · Gunter

§ Orbital elements

Epoch: 2026-09-20T22:16:23.814624Z

Period
94.91 min
Inclination
97.3323°
Eccentricity
0.0001069
Mean motion
15.17206415 rev/d
Perigee alt
513.6 km
Apogee alt
515.0 km
Semi-major
6,892.4 km
B*
1.4807e-4
RAAN
333.6443°
Arg perigee
17.3324°
Mean anomaly
342.7946°
Rev number
24,407

§ Raw data

SUPERVIEW NEO-1 011 52320U 22043A   26263.92805341  .00002878  00000+0  14807-3 0  99912 52320  97.3323 333.6443 0001069  17.3324 342.7946 15.17206415244077

JSON: /api/v1/satellites/52320 · /tle

For live sub-satellite position, see the globe view (requires WebGL).

§ Visibility from observer

Set your observer location to see the next 7 days of passes ≥ 10°. The values pass through the URL so the page stays shareable.

No JS? Fill the form by hand. The geolocation button needs JavaScript.